Theta_e
326 318 315 318 308 309 305 307 310 311 312 316 316 315 322 323 323 322 348 354 356 358 359 359 362 362 362 363 363 362 362 363 362 362 361 360 360 360 361 362 362 361 357 354 355 356 355 354 354
319 315 319 314 304 301 304 309 309 313 315 316 317 317 327 324 333 340 346 354 357 358 360 358 362 362 362 361 361 361 361 361 360 360 360 359 359 360 361 361 362 360 357 354 356 356 355 355 354
313 315 309 307 303 301 304 308 311 314 315 315 315 317 330 334 342 341 350 356 358 358 358 360 362 361 361 361 360 360 360 359 360 360 359 359 360 361 361 361 361 360 358 354 356 357 357 357 357
310 313 310 302 300 304 307 309 310 311 314 315 315 313 333 345 346 347 355 357 356 356 356 361 361 361 360 360 360 360 359 359 360 360 360 360 361 360 360 361 360 359 357 354 355 357 357 357 356
308 306 298 297 298 304 308 311 311 311 312 312 314 312 315 343 351 352 355 355 354 355 355 358 361 360 360 361 360 359 359 358 358 359 360 360 360 360 361 360 359 358 355 354 353 354 356 356 356
301 303 294 292 296 300 306 310 311 310 312 312 312 311 322 346 350 353 356 354 354 354 356 358 360 360 360 360 359 359 358 357 357 358 358 359 359 359 360 359 358 357 355 353 353 353 354 354 354
299 298 294 293 294 296 299 307 306 307 309 310 313 309 329 344 350 354 355 356 355 356 356 356 356 359 360 358 358 358 357 357 356 356 357 357 358 358 358 358 358 357 355 353 353 353 352 352 352
302 300 294 294 293 294 300 302 305 307 307 310 320 312 317 343 351 354 355 355 354 355 354 354 355 352 353 356 358 357 357 357 356 356 356 357 357 357 358 355 356 355 354 352 352 353 353 352 352
301 295 293 294 293 296 301 300 305 307 306 307 318 322 333 346 352 350 349 350 352 352 353 353 351 352 352 352 355 357 358 357 357 356 356 353 349 353 355 355 356 355 353 351 352 352 353 352 352
298 294 295 298 299 298 300 302 303 303 304 304 307 332 343 347 347 344 344 344 348 350 351 351 352 352 352 351 355 354 353 353 353 353 354 351 354 354 353 356 355 354 354 353 353 352 352 350 343
298 293 296 297 301 302 301 301 303 302 301 304 304 310 338 342 344 346 347 347 347 351 351 352 355 356 353 351 354 353 352 352 354 355 356 354 352 353 351 351 351 353 353 350 349 349 348 346 346
293 296 298 299 301 301 299 302 301 303 304 307 308 316 331 340 343 346 346 347 348 350 352 354 356 357 357 356 355 355 353 353 351 353 357 354 351 352 351 349 349 352 350 350 350 346 347 347 346
295 296 298 300 300 301 301 299 300 301 304 307 308 308 311 330 342 347 348 348 348 347 351 353 355 355 355 356 355 355 354 353 353 353 354 352 350 351 351 350 349 348 348 348 347 347 347 346 345
299 298 298 299 298 299 297 298 299 301 305 305 306 308 309 312 333 345 346 345 345 347 349 352 354 356 356 356 357 355 356 355 355 353 353 354 351 352 350 350 349 349 348 347 346 346 345 345 346
299 295 296 297 298 297 299 295 296 302 304 303 305 307 311 317 330 341 346 346 346 345 352 353 354 355 356 356 357 356 356 355 353 353 356 354 354 353 352 350 349 348 349 348 349 348 348 347 346
296 296 292 297 297 298 298 293 298 303 303 303 305 307 317 326 334 340 345 347 345 343 349 354 354 354 356 355 356 355 355 353 353 353 355 354 354 353 353 350 349 350 349 346 346 347 346 345 346
294 291 291 294 299 298 297 295 301 304 303 303 305 306 310 317 334 341 344 347 344 345 344 350 353 352 354 355 354 355 355 353 354 354 355 355 351 351 352 348 349 350 347 345 346 347 346 344 346
290 290 292 292 295 297 295 296 300 302 302 303 305 305 309 315 326 337 343 345 344 344 345 347 350 351 352 351 352 352 351 352 353 353 353 354 353 351 352 349 350 349 348 348 349 347 349 346 346
297 294 293 295 297 296 295 295 298 302 301 303 304 305 307 320 329 336 339 341 341 343 343 346 348 349 348 347 345 346 345 347 349 350 352 351 352 352 353 351 352 353 350 349 351 349 346 345 343
294 293 292 296 298 297 296 295 299 301 302 304 305 306 307 309 318 327 334 337 339 341 344 343 347 347 348 347 347 348 346 346 349 349 350 349 347 346 348 349 348 348 344 346 346 346 342 342 345
295 292 293 293 295 297 296 294 297 300 302 303 305 307 308 309 310 316 327 333 338 339 340 342 343 346 347 347 343 342 344 344 345 346 346 347 346 346 345 344 343 343 342 340 342 342 339 334 337
291 297 295 293 292 288 295 288 295 299 300 302 305 306 306 308 310 312 322 332 336 337 338 338 340 343 344 344 343 343 341 340 340 341 343 342 342 342 344 345 345 346 342 340 342 341 337 335 332
293 298 295 296 293 291 291 290 294 297 297 300 304 307 310 312 310 309 312 325 334 333 333 336 338 340 341 343 344 341 339 340 338 337 337 337 339 336 336 339 340 343 343 343 340 341 338 337 336
299 296 296 295 293 287 291 290 291 295 300 304 308 311 313 315 316 312 316 327 328 332 333 335 336 336 338 338 338 337 337 336 335 333 332 331 327 328 328 329 330 332 332 330 331 335 340 340 339
297 293 286 284 284 285 293 290 293 302 306 306 307 309 311 315 317 317 321 322 323 325 326 329 329 327 331 332 331 332 333 334 331 329 326 325 323 322 323 324 324 323 324 325 326 327 325 324 324
295 294 287 280 282 285 290 287 293 305 308 308 309 310 311 311 313 315 317 318 321 324 327 328 326 323 325 324 323 324 324 322 321 322 321 321 319 318 319 320 320 319 319 320 321 321 320 322 322
294 291 296 289 290 287 288 295 302 307 306 306 306 308 309 310 310 313 315 318 320 321 322 323 322 321 322 321 322 321 321 321 319 319 319 316 317 315 315 315 311 315 314 314 315 314 316 316 317
298 299 288 291 282 281 287 291 293 302 302 304 305 306 308 309 310 312 314 316 317 318 319 320 321 320 320 320 320 318 318 317 317 315 314 313 313 313 312 312 312 309 310 310 312 311 312 312 312
294 293 293 293 291 286 284 290 303 305 304 304 305 307 306 306 307 308 308 310 312 314 314 315 315 314 315 316 316 315 314 314 314 313 312 312 311 311 310 310 310 310 310 310 310 309 310 310 311
299 295 295 289 287 293 292 293 307 308 306 306 303 303 304 304 304 304 304 305 306 309 310 310 312 312 313 313 313 312 312 312 312 311 311 311 310 310 309 310 310 310 310 311 310 309 309 308 308
Wind_Speed
7 5 2 1 5 3 8 6 2 5 4 2 6 5 8 2 4 6 4 10 17 19 18 17 15 14 14 16 17 17 17 17 18 18 17 17 17 17 15 14 12 11 12 12 12 12 13 13 13
5 1 1 2 7 10 11 6 9 8 1 8 4 6 2 3 2 5 8 10 20 20 18 18 17 15 15 17 17 17 17 16 16 17 17 15 15 15 13 12 11 12 12 11 11 11 12 13 13
1 2 4 4 6 15 13 6 8 5 7 2 4 2 3 2 1 5 6 17 20 18 17 17 17 17 17 18 18 18 17 17 16 16 16 15 14 13 12 11 10 11 11 11 11 11 10 11 12
1 3 3 7 14 13 21 2 2 1 1 4 7 3 2 1 1 1 15 19 19 18 18 18 17 16 16 18 18 17 17 17 16 15 15 15 14 12 11 10 9 9 9 9 9 9 9 9 10
3 1 4 7 15 8 10 9 5 9 6 2 9 8 7 3 1 9 17 18 20 18 17 18 18 18 17 18 19 19 18 17 16 15 14 14 12 11 10 9 8 8 8 7 7 7 6 6 7
4 1 5 17 15 12 10 8 8 8 6 5 8 9 2 2 5 9 14 18 19 20 18 17 18 18 17 18 19 20 20 18 18 16 15 14 12 11 10 9 8 7 6 5 5 5 4 5 5
5 5 10 6 8 11 8 6 12 15 16 17 10 7 1 3 6 9 11 15 18 19 18 16 16 16 17 16 15 16 18 19 18 17 15 13 12 10 9 7 7 6 5 3 2 2 3 4 4
3 4 8 8 11 10 3 4 8 7 6 2 2 5 2 4 10 10 11 14 16 17 18 18 16 16 15 15 16 14 14 16 17 18 17 16 13 11 9 8 6 5 4 3 2 3 3 4 5
3 8 12 12 10 6 4 6 4 1 7 3 1 4 4 9 12 12 11 13 15 14 16 17 18 17 16 15 14 16 16 13 12 13 14 14 10 12 12 7 7 6 4 3 3 4 4 5 7
8 9 13 8 12 5 7 10 6 5 6 3 8 2 3 13 13 14 16 16 17 19 19 16 16 16 16 13 15 14 13 11 11 11 13 9 9 8 7 6 6 4 5 5 5 6 5 7 5
10 14 9 8 12 15 15 9 4 7 10 7 9 7 5 10 12 14 14 15 15 14 13 16 15 13 14 11 9 7 7 8 9 12 11 9 8 7 6 5 6 6 7 5 5 5 4 5 5
8 11 12 14 11 9 11 4 4 9 8 7 9 7 6 11 13 14 15 15 15 14 15 14 13 12 11 8 8 7 7 7 8 9 11 8 6 7 7 6 6 6 5 6 6 4 5 6 6
16 9 15 18 12 13 6 7 9 10 7 13 16 13 13 12 14 15 14 14 14 14 14 13 12 12 11 10 8 8 8 8 9 9 10 8 8 7 7 6 6 7 7 7 7 6 6 7 8
7 19 15 11 16 13 16 18 14 8 4 10 9 13 15 14 18 15 17 18 15 13 15 15 15 13 13 11 11 9 9 8 9 8 10 12 8 8 8 8 8 8 8 7 6 7 7 7 6
8 7 10 17 19 11 7 17 14 14 18 18 17 14 13 11 14 21 21 17 14 11 12 15 15 15 15 15 12 9 9 9 8 7 11 11 10 9 8 6 7 7 7 9 8 8 7 7 7
17 12 15 13 9 9 16 13 2 16 17 19 17 12 11 10 16 17 17 16 12 11 11 12 11 14 13 12 11 9 8 8 7 9 8 12 12 10 9 8 7 8 8 7 7 7 6 7 7
14 11 17 10 18 10 15 6 9 18 14 14 14 12 13 12 12 14 16 16 14 12 12 12 12 13 14 11 8 8 9 7 7 6 6 9 7 8 8 6 6 7 6 7 7 7 5 6 3
15 20 9 14 15 24 17 12 9 5 10 18 16 11 12 13 16 14 14 12 14 12 11 11 10 12 12 8 6 5 5 5 5 5 6 8 7 6 7 7 7 7 6 7 7 4 6 5 3
12 11 19 11 7 17 18 14 16 12 7 11 12 8 8 12 13 5 8 11 11 12 13 12 12 12 9 7 6 6 6 4 4 4 5 4 3 5 7 6 7 8 7 7 7 6 6 5 3
9 13 13 9 12 14 12 15 16 12 10 10 12 11 11 11 12 9 7 9 13 14 12 12 12 12 10 7 4 2 4 3 2 3 3 2 3 4 5 7 8 8 7 8 8 9 6 6 5
23 12 11 10 9 5 10 9 11 10 11 8 11 11 10 12 13 13 9 10 8 10 11 10 10 9 8 8 6 5 3 2 2 3 2 4 7 7 8 7 5 7 8 10 11 9 10 8 3
24 20 11 9 12 7 6 4 11 15 14 10 13 10 9 9 9 9 9 10 12 8 7 9 10 9 8 9 7 6 3 3 2 1 1 3 4 5 6 7 8 8 6 9 9 7 8 6 7
13 20 16 10 8 4 7 6 5 5 13 10 3 2 1 3 5 7 7 3 4 7 8 8 9 10 10 9 7 5 4 2 3 3 4 4 5 6 6 6 6 6 5 6 7 7 8 4 5
14 21 15 7 5 9 10 8 8 7 4 6 4 3 4 4 4 2 4 8 10 10 11 10 11 9 6 5 6 6 7 5 4 4 4 4 4 4 8 9 8 9 8 7 7 8 8 8 9
22 26 12 11 9 7 13 11 2 2 1 2 4 4 5 6 8 9 10 11 11 12 12 11 12 12 11 11 10 9 10 9 10 6 7 4 4 6 9 9 9 7 8 8 7 6 5 6 5
27 25 11 15 14 13 10 11 5 2 4 5 7 8 9 11 11 13 12 13 13 13 14 14 15 15 14 14 14 12 12 8 8 8 6 6 6 7 8 8 7 7 8 7 7 5 5 6 5
29 26 11 6 4 9 9 3 3 4 7 8 10 11 12 12 14 15 16 16 16 16 16 16 17 17 15 15 13 13 11 10 10 10 9 7 7 6 7 7 7 7 7 7 7 6 6 7 5
28 23 11 7 11 12 8 7 8 11 10 11 12 12 13 15 17 18 18 18 17 17 16 16 15 15 14 13 12 11 11 11 10 9 9 8 7 7 7 8 7 6 7 8 7 6 6 6 5
21 22 10 6 2 7 10 6 1 12 14 15 14 13 14 16 17 17 17 16 16 17 16 15 13 14 13 13 13 12 11 10 10 9 8 8 7 8 7 7 7 7 7 8 8 8 6 6 5
25 24 17 7 7 2 5 4 2 12 13 15 16 16 17 17 17 16 16 16 16 16 15 14 12 13 13 12 12 11 10 9 9 8 8 7 7 7 7 7 8 8 8 8 8 8 7 8 7
Wind_Direction
309 315 267 206 237 253 239 209 268 202 191 115 287 273 308 249 296 314 5 150 145 142 142 145 142 140 135 125 121 121 124 129 134 135 136 139 138 136 137 138 139 141 136 134 133 131 130 127 126
328 88 131 122 229 225 241 179 197 231 18 305 305 314 95 130 85 112 143 152 149 142 148 148 146 144 139 128 125 124 125 128 130 131 135 137 133 134 136 139 142 142 139 139 138 137 134 130 129
105 356 186 203 218 223 247 161 207 250 319 342 351 344 359 71 82 158 126 147 146 146 148 144 147 146 142 136 132 132 132 131 132 133 135 133 132 134 137 138 137 143 143 146 148 146 141 140 142
124 146 112 230 219 230 236 186 110 106 306 31 352 308 133 141 268 54 145 149 148 148 151 142 143 145 144 140 137 136 135 135 135 137 136 135 135 136 134 134 138 141 145 151 154 153 157 160 157
50 151 198 231 232 238 241 234 252 284 282 314 346 315 305 179 298 147 153 156 152 152 151 149 143 145 149 147 146 143 141 139 137 136 134 132 132 132 131 133 136 138 144 155 163 170 174 173 170
134 229 204 224 223 235 238 255 262 260 273 287 305 309 321 95 148 151 162 162 158 153 152 151 147 147 151 152 152 148 147 145 143 141 139 134 131 133 132 138 139 137 140 156 173 185 193 198 205
200 189 227 233 251 253 241 214 242 259 264 267 256 265 39 159 139 148 169 164 161 155 155 158 159 153 150 150 152 151 149 150 149 144 140 139 137 135 138 140 142 142 144 154 194 228 238 238 244
178 221 216 220 227 254 219 198 229 225 250 251 231 224 290 153 154 149 168 166 166 165 163 163 163 163 164 159 151 153 156 156 154 151 149 148 145 148 157 157 157 155 159 181 224 258 266 271 273
149 225 232 223 198 225 192 202 204 236 234 218 282 287 326 160 151 154 160 175 175 175 174 173 170 168 167 166 162 155 156 154 152 155 156 154 168 173 169 162 162 171 185 207 235 257 266 268 261
196 225 221 214 222 225 207 219 214 231 213 235 288 140 98 159 169 176 174 180 189 186 184 179 177 173 171 169 167 169 168 170 173 173 171 173 170 174 181 170 178 198 217 220 228 238 251 256 272
197 228 211 213 221 230 248 241 218 227 244 242 263 308 170 179 188 191 202 198 196 190 183 186 185 180 181 177 175 176 176 171 176 178 175 173 171 175 186 185 194 206 206 240 226 237 251 267 272
216 222 209 222 216 220 241 242 209 220 251 268 275 291 229 199 200 196 200 195 196 194 195 188 188 183 186 183 182 180 183 183 178 178 179 176 180 185 187 188 198 210 219 230 239 245 247 258 261
223 205 211 227 220 221 229 223 263 251 257 269 273 269 252 235 216 205 199 201 195 199 198 194 189 185 184 184 185 184 194 192 191 179 181 187 195 196 200 205 204 208 203 216 231 238 247 253 252
209 216 222 221 229 238 248 253 244 255 235 253 259 264 267 238 223 213 200 205 200 197 192 190 190 187 181 191 192 189 189 195 193 186 185 192 200 205 207 203 216 213 212 216 225 236 242 240 258
196 192 221 231 237 236 192 249 226 235 251 265 264 257 268 239 217 215 212 211 198 184 183 191 193 194 192 190 187 194 195 192 193 197 192 196 205 214 225 224 231 244 235 221 202 232 240 250 246
212 235 228 187 183 216 196 250 236 226 229 236 249 249 246 230 220 222 220 205 188 169 181 189 194 197 198 196 190 192 190 199 198 208 190 201 205 215 223 223 226 241 244 231 240 200 220 242 258
196 206 217 209 208 189 197 218 255 218 208 237 247 249 243 246 233 223 220 203 178 179 177 187 192 197 195 191 190 199 203 199 208 212 205 210 207 211 233 248 251 241 248 261 239 237 258 254 236
196 211 186 191 191 214 199 215 232 143 204 231 249 251 244 240 238 221 219 205 183 172 178 182 192 197 191 185 187 203 210 213 221 222 218 218 223 220 234 244 253 256 239 246 247 245 230 251 276
217 193 204 191 173 194 205 204 234 249 216 237 246 225 223 234 250 214 200 184 182 177 174 177 180 182 175 172 185 210 215 206 214 218 222 215 208 218 231 253 260 247 250 250 260 257 266 274 214
198 200 202 191 194 197 189 215 229 221 227 227 236 237 228 232 251 247 191 190 188 185 191 176 179 173 174 176 173 162 171 194 203 198 228 253 275 270 257 255 263 274 272 267 250 239 251 254 219
217 203 180 154 152 198 166 208 213 211 225 218 243 238 233 226 231 245 229 213 207 200 190 175 165 161 164 155 136 114 123 126 196 219 256 269 260 254 248 243 256 266 268 267 268 260 246 257 270
205 203 185 172 182 194 217 206 207 216 203 206 223 222 226 217 233 246 229 211 204 199 168 159 161 157 155 155 153 148 154 164 122 49 338 322 311 287 276 272 272 277 279 272 276 262 249 238 240
203 180 192 187 203 201 180 224 142 177 201 204 172 112 254 287 274 252 247 269 151 137 125 134 144 151 157 162 164 160 160 128 105 102 70 61 49 29 11 0 332 312 313 298 281 260 232 246 276
167 166 179 161 185 235 192 216 187 178 143 142 118 62 10 12 20 44 105 109 110 115 110 115 116 108 113 123 129 136 146 140 124 93 94 76 65 52 38 37 28 21 7 8 359 347 307 287 279
174 158 155 179 198 217 182 193 103 116 19 208 145 103 63 44 70 96 91 93 100 104 105 106 108 95 101 98 93 95 93 92 97 92 79 84 65 45 38 37 40 32 22 13 4 24 45 39 30
192 179 174 176 184 165 177 196 146 66 76 108 107 95 81 76 80 87 95 101 103 105 107 112 109 103 100 97 92 86 84 86 85 80 85 71 59 50 36 34 37 30 22 20 6 9 16 20 20
184 193 180 134 154 160 158 147 177 138 109 108 105 95 87 88 93 91 93 93 94 92 93 101 103 99 95 94 92 86 87 89 91 81 74 69 56 59 40 31 12 20 17 19 355 12 2 359 352
183 174 177 178 165 168 170 174 151 168 143 124 114 106 101 100 95 92 90 91 91 91 92 91 90 92 95 94 87 85 88 86 88 84 75 66 51 39 30 23 12 5 2 13 356 2 360 341 335
179 186 201 117 217 164 154 151 32 153 148 130 118 106 106 99 94 92 89 87 90 90 88 86 86 88 83 79 82 81 77 76 73 68 59 50 42 32 25 19 2 0 5 10 3 358 338 325 324
177 188 181 174 154 65 154 115 65 132 130 125 111 110 104 99 97 92 91 90 87 84 82 80 77 76 76 78 77 73 71 68 63 58 48 33 29 22 15 4 358 351 349 349 339 327 320 315 321